Helicity
34 8 -3 -24 -24 46 35 72 25 -6 15 28 7 12 18 34 11 -38 -47 -35 -3 -6 9 58 52 82 153 282 346 334 482 415 355 329 342 376 301 388 356 360 305 377 375 405 432 384 238 238 339 239 227 310 234 235
43 37 5 -6 -21 48 38 54 83 41 19 27 10 16 31 27 8 -15 -29 -21 7 -3 5 22 47 79 116 146 224 397 372 470 358 430 392 379 391 401 364 344 391 318 342 302 303 324 377 359 380 388 241 157 154 185
48 46 25 -0 -13 -16 43 41 111 74 33 31 35 44 43 28 14 -24 -35 -1 24 44 35 61 85 148 169 169 200 324 389 349 462 567 549 510 463 425 411 400 497 396 342 331 322 328 366 344 228 170 152 178 168 166
36 47 52 27 -8 -23 48 40 56 86 110 50 48 43 45 38 -2 -12 -40 2 15 32 42 80 152 81 195 134 138 119 122 194 266 439 536 467 453 474 460 455 520 491 343 290 290 233 247 256 224 185 248 248 258 251
33 37 37 43 26 -15 -28 54 38 43 65 68 55 28 48 40 8 -29 -37 -11 32 37 36 95 114 192 233 167 158 138 93 96 153 235 348 412 332 377 327 293 348 314 273 255 225 126 160 180 181 183 258 232 212 194
31 41 46 41 37 26 -20 -11 57 36 48 52 59 57 29 44 29 -6 -10 -22 31 39 54 103 110 174 222 211 190 169 113 88 77 135 167 151 115 171 241 273 227 217 206 154 155 196 221 206 233 205 235 223 222 222
30 40 47 50 47 45 19 -21 48 56 43 64 53 45 32 16 4 4 4 30 34 2 48 76 122 146 160 149 131 152 128 96 90 88 113 124 145 147 150 188 158 226 224 244 222 193 258 215 187 231 230 233 228 236
33 37 48 49 57 62 35 17 -0 66 86 60 55 38 5 7 16 1 19 67 5 4 26 69 92 133 173 137 125 142 112 109 130 93 115 128 133 137 125 147 160 217 221 265 241 218 202 194 243 250 225 216 248 242
38 34 42 53 64 70 45 34 15 88 110 75 39 17 29 20 24 25 98 27 4 -3 23 38 80 126 147 143 143 139 109 102 102 111 127 128 152 146 130 123 160 196 165 158 215 231 234 245 223 224 218 235 209 193
42 39 37 45 72 61 54 47 30 72 104 45 20 28 37 16 64 29 41 46 47 41 41 33 44 76 105 128 134 131 134 138 134 145 142 147 143 132 161 163 152 149 137 159 210 225 233 254 240 215 208 175 161 148
43 42 38 33 71 51 50 42 32 9 3 3 -3 24 -4 42 31 51 56 60 71 88 71 70 77 71 73 92 102 125 126 146 143 141 140 156 163 135 124 160 177 211 213 219 207 199 183 148 155 156 136 132 124 113
39 44 40 29 61 43 46 41 37 75 81 66 20 7 16 30 45 60 58 76 88 89 89 90 98 86 83 81 88 115 107 106 145 115 154 148 112 103 122 150 174 179 178 179 154 152 149 135 113 106 103 103 88 75
27 37 39 41 42 35 35 35 33 24 17 22 23 8 24 31 59 69 75 70 80 102 99 101 107 109 124 128 126 127 144 142 124 147 132 122 96 95 115 145 173 160 147 133 145 125 112 98 83 61 52 50 63 74
17 26 39 66 27 27 27 35 44 58 51 46 24 20 16 37 62 56 61 58 51 56 73 68 63 93 108 133 125 169 160 158 175 164 125 86 67 90 117 134 135 134 133 118 104 90 79 73 61 44 39 43 58 72
21 12 74 52 20 18 21 34 63 82 64 56 34 36 22 15 16 33 44 38 46 53 64 57 61 58 81 94 94 108 116 100 69 90 90 70 66 69 78 81 78 76 72 75 62 66 75 82 81 80 72 72 70 67
30 48 102 16 20 15 28 65 84 66 43 52 33 10 -12 -8 22 38 67 56 58 77 51 44 66 82 88 84 87 78 86 42 51 35 60 72 81 88 80 79 79 71 74 79 87 85 75 69 61 63 67 63 55 58
79 124 47 30 24 40 52 86 68 51 53 60 46 -4 -9 -13 3 29 33 38 84 80 87 78 98 105 83 111 114 100 83 67 62 112 131 126 125 115 100 97 99 100 97 91 77 62 50 50 62 62 53 61 61 66
161 130 58 51 54 72 94 77 73 80 69 38 73 44 40 24 19 18 42 67 73 56 71 120 74 105 127 117 110 93 97 129 169 167 161 165 146 116 112 109 102 90 70 62 60 56 53 55 52 48 47 49 59 71
121 118 104 81 87 103 122 110 70 98 70 62 60 80 61 44 28 27 36 55 53 72 117 120 109 149 165 134 125 130 142 138 135 163 171 147 128 121 113 102 90 89 77 65 62 59 55 44 46 54 55 58 70 84
144 159 136 115 103 106 142 125 58 104 88 71 82 91 69 53 40 32 30 46 60 71 123 153 152 130 127 136 153 147 145 132 117 124 104 110 109 95 92 83 79 71 68 64 64 72 65 64 53 49 50 51 59 72
178 154 150 126 117 121 144 140 116 82 58 74 70 102 75 73 68 53 43 56 66 77 95 102 107 123 137 143 148 139 152 133 122 98 86 85 71 75 73 77 76 75 74 68 66 64 63 49 56 56 66 75 85 97
171 172 198 137 147 136 175 131 121 64 64 49 83 97 89 68 54 55 44 67 62 55 70 81 88 95 105 119 122 119 107 98 96 91 89 81 82 77 73 68 71 71 67 59 53 47 55 57 48 53 60 63 51 68
166 207 159 136 167 152 144 117 140 96 106 83 87 111 97 80 73 55 71 44 42 50 54 59 63 59 70 71 67 79 80 81 87 77 69 64 57 50 51 51 50 54 58 51 36 41 44 23 26 28 36 32 38 51
208 177 133 159 145 158 140 169 161 157 143 109 113 122 107 86 75 81 72 55 48 58 73 79 54 56 54 61 67 62 60 63 75 66 48 57 59 50 47 44 42 31 35 34 39 42 37 32 14 26 26 27 30 41
177 115 169 162 136 182 223 239 222 192 151 136 139 118 113 101 92 74 50 31 41 58 71 70 75 81 69 62 54 53 41 44 53 66 38 34 23 30 39 41 44 33 25 28 22 24 27 24 30 37 34 32 31 26
161 150 182 175 188 225 227 245 206 162 153 123 126 117 117 105 92 67 33 17 25 35 44 57 67 63 55 46 40 35 27 28 37 38 17 17 33 37 36 47 54 61 25 26 19 20 25 30 29 33 33 30 23 15
211 204 159 150 207 219 228 212 176 154 136 143 133 125 116 111 86 45 18 13 15 22 26 28 22 18 22 29 24 21 27 31 29 36 46 42 29 31 45 43 47 43 44 38 26 16 20 29 35 46 37 33 29 4
194 181 223 191 234 197 203 173 147 148 146 137 143 124 122 107 82 17 6 13 14 13 13 14 9 7 7 6 14 24 25 28 33 32 28 30 26 30 21 54 83 26 28 30 18 18 8 7 29 10 -1 7 3 -6
204 182 207 232 217 196 167 173 166 158 144 137 121 96 71 39 23 22 23 31 34 37 34 29 18 18 12 16 17 28 28 36 59 68 78 77 85 56 67 87 83 74 55 37 19 11 -7 -2 -7 -11 -12 3 -6 -10
188 176 216 206 192 160 144 141 137 119 99 84 63 50 38 33 24 25 25 28 35 35 29 21 15 20 17 27 46 59 38 40 46 48 60 76 77 94 97 91 96 90 67 41 35 21 11 -0 -8 -5 3 -9 -15 -20
183 195 197 173 157 127 110 88 76 75 75 65 49 48 35 27 25 27 24 24 29 33 32 27 24 12 15 25 28 38 45 32 31 39 46 59 77 97 104 104 100 88 62 47 40 13 -3 -12 -8 -3 3 -3 -0 1
177 165 159 147 116 89 86 90 77 84 66 65 51 37 29 36 34 28 29 32 40 39 29 20 22 33 23 15 2 2 -16 30 47 52 57 75 94 118 123 104 78 59 28 19 6 -2 -8 -7 -7 -1 -3 -1 2 2
149 137 136 127 120 108 78 89 83 75 70 67 56 53 49 47 47 40 28 27 26 7 7 8 18 25 7 -7 -2 1 6 43 33 22 23 12 25 34 32 48 31 15 11 13 -1 1 -3 -1 -6 -1 -2 -0 2 -0
Wind_Speed
81 79 77 73 63 81 84 86 81 31 51 61 62 59 58 57 54 50 46 44 37 35 32 30 32 35 38 47 62 50 50 55 57 62 61 55 58 61 64 57 63 65 65 69 66 78 95 44 46 58 53 30 23 19
80 76 74 74 69 86 84 81 75 67 70 65 62 59 58 54 48 47 45 46 38 30 29 29 24 24 31 37 45 54 53 52 52 55 54 50 52 46 49 67 50 60 56 57 54 57 40 31 39 38 21 12 15 11
81 77 72 69 69 63 84 80 78 70 71 72 66 62 57 49 46 44 42 41 31 28 26 24 27 30 26 28 32 41 43 42 45 43 39 43 50 46 52 53 44 38 33 37 34 32 21 24 22 19 13 10 8 8
78 77 74 68 65 63 82 81 77 73 67 67 69 68 63 52 45 41 36 38 30 31 29 26 25 22 29 26 24 22 19 21 26 34 45 49 51 46 47 40 39 38 33 31 31 17 12 19 19 15 11 11 13 18
80 79 78 71 66 63 51 78 78 75 70 64 57 63 56 53 45 37 30 33 32 31 33 30 28 24 24 19 13 11 9 16 24 27 31 36 32 28 25 25 31 33 29 32 35 16 23 20 20 15 15 20 21 23
77 80 79 76 70 65 56 40 75 76 71 66 50 51 47 49 45 36 35 32 37 31 29 35 32 31 27 22 16 17 19 20 20 20 21 19 21 23 28 32 30 27 26 27 21 18 12 13 16 18 21 25 28 30
74 77 81 77 74 70 62 50 71 74 73 67 57 51 46 44 40 30 29 40 41 32 30 34 37 36 34 29 25 26 24 24 22 22 22 22 24 24 27 31 23 20 17 14 13 12 19 24 24 25 26 29 32 35
73 74 78 79 75 73 65 56 36 72 72 69 59 51 50 42 34 33 36 42 37 29 29 35 39 37 35 34 34 34 32 31 31 29 28 29 30 31 34 22 18 19 18 20 23 22 17 17 24 31 32 35 41 46
71 73 75 78 77 76 69 61 41 71 70 66 60 51 37 38 37 42 49 40 33 29 30 31 36 43 37 34 35 35 35 36 36 35 36 35 38 40 33 27 25 27 26 17 19 21 24 29 34 39 41 45 49 52
69 72 73 75 75 77 72 66 51 54 66 62 50 42 38 44 52 47 37 36 35 35 32 31 34 34 36 35 35 36 36 38 44 39 34 37 39 29 27 23 24 26 22 23 28 33 34 37 39 43 46 46 48 50
66 71 73 73 74 78 74 69 57 50 46 45 36 34 51 52 40 36 33 34 39 35 36 36 34 33 34 33 32 34 35 36 44 42 40 43 43 32 21 19 22 24 22 27 28 30 33 35 38 40 39 42 46 51
64 69 72 71 72 78 75 72 64 55 38 27 17 41 44 41 37 35 35 35 34 35 39 37 37 36 36 35 34 36 36 36 46 35 40 49 36 23 19 22 25 25 25 28 31 33 36 37 37 40 44 49 54 57
61 66 70 68 73 77 76 74 66 50 38 32 30 29 32 35 32 33 35 36 34 38 39 39 38 38 37 35 35 36 40 44 33 43 49 43 27 23 22 25 26 27 27 29 34 36 36 40 42 46 52 55 60 65
60 65 65 66 74 76 75 72 66 51 41 39 36 33 32 30 34 35 39 40 38 40 41 39 36 37 38 37 38 43 42 40 51 56 55 35 27 24 23 23 24 27 30 33 35 40 44 48 52 54 57 60 64 68
59 63 56 67 75 74 71 68 60 51 46 43 38 36 34 33 36 40 42 39 43 44 41 35 33 34 33 32 33 31 34 41 44 48 39 22 14 12 16 19 22 27 32 37 42 48 52 55 58 61 62 64 66 67
61 56 56 71 72 73 63 60 57 48 47 44 41 35 38 31 43 45 46 44 46 47 40 36 36 35 34 32 31 32 29 34 33 28 16 10 11 15 19 24 28 33 39 44 48 52 55 57 60 63 65 65 65 65
60 52 62 66 71 65 59 52 53 53 49 46 42 39 35 30 37 46 48 49 51 43 40 40 41 39 35 38 38 36 38 35 26 18 16 17 20 23 27 31 37 41 45 49 51 53 55 56 57 61 66 66 67 67
54 57 59 63 68 57 48 51 52 49 51 50 45 44 39 34 41 43 49 50 47 45 43 40 42 43 43 44 43 37 31 25 22 20 21 24 25 30 36 39 42 45 47 49 51 54 54 57 60 63 65 67 68 67
58 60 59 60 60 51 49 47 50 51 48 46 45 42 40 36 36 47 49 51 45 41 44 40 40 42 43 41 39 31 27 28 27 29 28 29 33 37 41 43 44 46 48 50 51 54 55 56 58 62 64 64 65 64
55 56 58 54 52 46 47 44 44 47 50 46 44 47 41 37 43 45 46 48 42 38 39 39 38 38 36 34 32 28 29 28 28 31 34 35 38 40 42 43 45 47 48 48 51 53 55 58 59 62 63 62 65 67
53 52 54 49 44 44 41 40 46 46 45 46 48 50 43 41 40 46 46 49 37 37 36 36 33 32 30 29 29 29 30 31 32 34 36 36 38 40 40 42 44 45 46 49 53 56 57 60 64 63 63 64 63 61
50 51 51 46 43 42 41 38 41 41 44 46 50 51 46 43 42 43 48 40 36 36 35 35 34 33 30 29 30 30 32 32 33 34 34 37 38 39 41 44 46 47 49 51 52 55 59 61 61 61 61 64 64 65
48 51 47 44 44 46 43 36 42 47 52 53 52 52 46 44 40 42 36 35 34 36 35 33 32 29 28 29 29 32 34 36 38 39 38 38 39 39 41 45 43 44 49 49 49 56 61 62 64 63 65 68 66 66
50 46 44 47 48 48 42 44 43 48 48 55 55 53 47 43 44 37 33 33 34 36 36 35 28 26 28 31 34 35 37 39 42 39 37 38 40 43 46 43 41 41 41 46 54 61 63 65 66 67 68 69 67 67
50 47 46 49 47 48 51 51 51 52 54 55 54 48 43 41 39 36 34 32 33 34 34 32 30 31 30 34 36 38 37 39 43 44 39 36 41 46 43 42 42 44 40 51 60 65 67 67 67 69 70 68 68 71
51 46 49 50 50 54 53 55 53 54 54 52 46 41 40 40 37 34 34 32 32 33 33 32 32 33 34 37 41 42 42 41 42 42 39 38 44 43 44 46 48 50 47 57 64 68 69 69 70 71 71 70 71 71
53 50 46 40 46 46 51 48 48 50 50 46 43 43 40 36 34 34 34 34 31 32 32 32 32 35 39 43 45 45 47 45 40 42 48 46 40 35 35 45 54 57 62 65 66 66 68 70 70 69 69 68 67 66
46 46 55 48 48 47 52 51 50 47 43 38 39 39 36 32 31 32 33 34 33 33 33 34 35 40 45 47 49 49 47 45 48 44 39 39 40 35 36 42 51 60 62 62 63 64 65 67 67 66 65 66 63 61
48 46 47 51 48 47 47 46 43 38 36 36 37 34 30 30 30 31 31 32 32 33 36 39 42 45 46 47 45 46 45 42 43 46 48 49 48 43 51 58 60 62 62 64 65 63 63 64 62 61 60 59 58 57
48 44 50 48 51 49 41 38 38 36 35 34 32 30 29 30 30 31 30 28 30 31 37 41 44 45 47 48 50 47 43 39 37 43 50 51 50 57 63 63 63 62 61 61 62 61 60 58 57 55 55 54 54 54
45 45 46 45 46 39 37 37 36 35 35 33 31 28 29 31 30 30 31 29 29 33 41 43 45 46 48 50 49 48 47 39 40 48 47 43 45 54 61 64 64 63 61 60 59 56 56 55 54 53 53 51 52 53
45 43 43 45 42 37 38 37 37 36 35 33 31 29 29 29 29 29 30 29 32 40 42 44 47 50 50 49 49 48 46 49 53 54 53 47 47 44 40 41 63 61 58 57 55 52 52 52 51 51 50 49 50 51
41 39 39 38 39 38 37 37 37 37 34 33 31 29 28 28 29 30 30 31 36 44 46 48 51 53 50 50 50 46 44 48 54 58 58 56 63 63 57 55 55 57 56 54 51 48 49 48 48 48 47 47 48 49
Wind_Direction
24 25 24 23 21 333 334 337 341 21 314 315 319 314 313 310 311 314 301 308 285 286 302 295 279 262 255 246 238 240 241 248 246 247 248 253 258 255 258 263 258 257 258 262 267 268 270 274 277 275 287 289 277 275
23 23 23 23 22 337 335 336 336 334 340 331 330 322 316 311 315 312 306 304 290 284 285 280 297 310 283 267 244 241 252 247 248 247 252 257 261 259 256 256 268 261 265 265 267 273 281 277 287 293 292 279 286 289
24 23 21 21 21 21 337 335 335 332 338 342 339 340 334 330 323 315 307 303 289 273 281 292 290 289 300 287 273 249 254 258 255 256 250 258 255 258 255 258 265 270 270 269 274 284 280 296 298 301 299 302 311 318
21 20 20 19 19 19 336 333 331 330 326 330 335 338 334 324 326 321 312 314 294 279 270 278 287 299 291 298 290 276 267 268 259 260 256 256 257 263 266 268 262 267 266 264 276 276 290 304 301 302 309 323 322 321
21 20 20 19 18 17 15 325 327 325 323 318 314 322 320 321 297 315 311 322 308 283 265 263 276 296 302 312 342 334 299 273 272 270 259 258 265 268 272 279 267 275 268 271 271 251 288 281 299 313 306 307 315 314
20 20 19 19 18 17 14 341 318 321 318 315 302 302 303 313 310 290 282 304 313 291 283 261 272 277 290 298 310 310 297 294 290 287 284 294 286 277 273 274 276 283 285 285 276 287 300 299 311 319 314 315 318 318
19 19 19 18 17 17 15 10 314 314 314 310 302 298 292 300 320 311 294 292 301 291 288 272 267 277 282 281 287 287 303 293 296 297 295 281 285 287 282 272 268 288 297 306 302 300 298 301 302 316 319 320 321 320
18 17 17 17 16 17 14 12 340 312 309 308 300 292 320 315 323 301 291 301 302 296 291 275 272 272 288 277 274 290 283 288 292 285 282 279 283 287 281 274 280 291 299 304 307 312 309 315 320 316 322 317 312 311
16 15 15 15 16 15 14 12 1 313 307 303 301 313 357 341 334 289 283 294 312 305 289 289 276 266 286 282 281 282 285 278 286 279 279 282 280 279 280 273 282 291 291 297 318 322 318 314 314 315 315 315 312 313
14 13 14 14 15 14 13 12 8 312 309 315 332 330 336 324 283 289 303 295 291 296 298 294 290 284 283 281 284 284 289 282 274 283 292 284 281 292 294 297 299 299 303 308 306 305 311 314 316 317 318 319 318 316
11 11 11 13 14 12 13 12 11 13 22 17 20 1 309 300 323 325 325 310 297 294 294 290 294 288 295 288 287 293 288 290 277 281 282 280 280 288 308 312 316 321 321 321 322 321 323 323 321 320 321 320 317 314
8 8 9 11 13 11 11 11 13 19 24 27 36 331 320 318 319 319 317 314 311 302 298 291 288 291 291 295 289 290 288 291 281 294 287 281 294 299 297 299 302 310 322 324 323 325 327 324 319 315 315 315 315 316
6 6 7 11 11 10 10 12 14 18 28 42 42 30 15 344 346 329 321 311 312 304 298 295 293 294 294 299 294 293 290 287 296 289 284 291 299 294 294 298 303 312 320 322 322 326 320 315 316 316 315 317 316 316
4 4 6 11 9 9 11 13 16 25 37 39 36 33 31 19 352 326 309 306 308 305 301 299 298 297 295 292 293 287 292 293 283 281 282 292 290 291 297 304 309 312 317 319 318 312 313 313 315 316 317 318 319 319
1 1 8 10 8 9 11 15 22 32 37 36 38 34 30 7 344 325 313 306 307 302 300 302 304 304 299 300 300 302 298 292 289 286 292 292 295 308 313 316 317 315 312 311 312 313 314 315 316 317 319 321 321 321
2 5 11 5 7 8 13 19 28 38 39 39 39 30 15 8 339 325 318 311 310 302 299 299 297 297 296 301 300 298 303 300 301 302 314 334 332 326 322 319 318 316 316 316 317 317 317 318 319 320 322 323 323 323
5 10 3 4 6 10 17 26 29 33 35 32 29 27 18 8 346 324 314 309 308 304 293 295 291 290 297 293 291 298 295 301 311 317 318 320 319 318 320 320 318 318 318 318 319 320 321 323 324 324 323 325 325 325
4 0 3 5 7 13 23 28 28 30 26 27 25 20 20 12 349 331 316 310 305 301 298 294 295 287 287 286 289 297 304 310 315 315 318 320 322 322 321 320 320 320 321 322 322 323 324 324 324 325 325 326 327 328
359 1 4 5 10 15 17 23 25 21 22 22 23 22 18 12 359 333 319 310 307 304 298 297 295 292 291 296 297 301 302 302 303 306 315 319 321 320 320 321 322 322 323 324 324 324 325 326 327 328 329 330 329 330
1 5 6 9 12 15 14 19 26 21 17 17 19 14 13 13 358 343 330 319 314 308 302 298 298 301 302 306 308 307 309 312 308 306 307 314 318 320 321 323 323 324 325 326 327 328 328 328 330 329 330 330 329 328
2 6 6 10 14 17 17 17 17 19 18 16 13 10 9 10 6 350 335 322 324 312 306 304 305 308 314 316 318 320 319 317 313 312 311 312 321 323 326 327 327 328 328 328 327 327 327 327 327 329 331 330 330 332
359 3 2 9 11 13 15 21 15 17 14 11 10 8 9 8 4 356 337 334 329 321 312 307 306 307 311 313 318 321 322 324 324 323 325 322 321 323 325 326 325 325 326 328 329 329 328 329 330 331 331 329 330 329
1 2 5 10 7 9 8 17 9 9 4 4 6 5 6 4 4 357 355 344 333 325 317 315 313 314 316 317 320 321 322 322 320 320 322 324 325 327 327 327 330 329 328 331 335 330 328 327 325 327 328 324 327 328
3 6 7 7 7 3 9 6 8 4 5 3 2 0 4 6 1 4 357 346 334 325 320 315 324 326 320 317 314 316 318 321 320 323 326 326 327 326 326 329 332 335 337 335 330 326 323 322 322 321 322 322 325 326
358 3 4 360 5 3 359 358 358 359 356 357 358 2 7 8 6 3 358 349 336 327 323 323 323 322 325 318 313 315 321 322 320 318 327 333 330 325 330 332 332 332 341 332 324 321 319 319 321 322 319 322 325 325
353 1 359 359 359 356 356 353 355 355 355 357 3 6 9 8 9 8 3 354 341 331 327 325 320 317 323 320 309 308 313 320 320 321 327 334 327 328 328 327 324 322 335 326 320 319 319 318 316 313 313 314 313 323
349 352 358 3 358 358 355 358 358 356 356 0 4 6 8 9 12 12 8 359 349 336 326 322 322 321 320 309 306 307 305 311 319 318 313 319 331 340 342 332 321 319 315 313 315 317 315 310 306 302 309 312 322 317
354 355 348 353 354 356 352 353 354 358 2 8 7 7 8 13 12 12 8 1 353 341 330 323 322 317 308 303 301 303 308 311 307 318 328 331 334 338 343 338 330 321 322 323 321 317 312 306 299 310 311 314 304 307
352 355 354 350 353 355 355 356 359 5 9 9 4 5 8 9 8 3 359 355 348 338 329 323 314 307 306 307 311 311 313 318 319 317 317 319 326 334 332 324 321 319 320 317 309 310 309 310 316 317 319 323 310 310
350 356 351 352 350 352 0 6 5 8 10 11 13 14 12 9 10 10 7 3 352 342 326 314 307 305 300 302 302 307 317 326 332 328 322 323 330 324 318 318 317 318 319 319 314 304 306 313 316 323 327 320 315 317
354 353 353 355 354 2 6 8 10 12 14 16 19 19 15 10 15 22 23 20 7 340 314 308 301 303 302 300 304 305 311 330 337 330 336 342 341 332 321 313 310 311 312 312 308 306 303 305 312 315 321 313 313 319
352 353 354 353 358 7 9 10 11 12 16 20 23 26 22 18 15 20 24 20 2 331 311 305 298 295 296 295 301 308 318 320 321 327 333 343 342 342 344 342 305 306 308 303 302 302 303 306 310 316 311 307 311 315
354 357 0 2 2 5 9 10 11 12 19 20 24 30 27 20 14 17 19 9 349 323 309 304 298 293 291 297 297 312 330 333 328 324 329 336 324 322 328 327 319 308 299 295 295 300 301 306 310 311 304 305 309 313